Back to catalog

FREGAT DEB

LostLEO
NORAD 46021·DEBRIS·🇷🇺 Russia

Launched Jul 18, 2011 from Baikonur Cosmodrome

Loading…

Next Passes (next 24 hours)

TLE

StaleSource: Space-Track

Epoch: Feb 27, 2021, 20:38 UTC

1 46021U 11037HY  21058.85998683  .57083349  00000-0  91589+0 0  9997
2 46021  49.9119 272.1940 1061565 101.1361 271.0552 13.53480492 19742

Track FREGAT DEB in real time with AllMySat

Download on the App Store